{"data":{"norad_id":61713,"epoch":"2026-09-20T07:07:35.808672Z","epoch_age_seconds":206174,"freshness":"STALE","line1":"1 61713U 24196G   26263.29694223 -.00001458  00000+0 -32026-4 0  9992","line2":"2 61713  53.1608 274.4500 0001879  97.5218 262.5998 15.34381034106990","mean_motion":15.34381034,"eccentricity":0.0001879,"inclination_deg":53.1608,"raan_deg":274.45,"arg_perigee_deg":97.5218,"mean_anomaly_deg":262.5998,"bstar":-3.2026e-5,"rev_number":10699,"period_min":93.848918103872,"perigee_km":461.47420726332,"apogee_km":464.04501621001,"semimajor_km":6840.8966117367,"source":"CELESTRAK","updated_at":"2026-09-22T09:00:49.410953Z"}}